Date,TemperatureHighF,TemperatureAvgF,TemperatureLowF,DewpointHighF,DewpointAvgF,DewpointLowF,HumidityHigh,HumidityAvg,HumidityLow,PressureMaxIn,PressureMinIn,WindSpeedMaxMPH,WindSpeedAvgMPH,GustSpeedMaxMPH,PrecipitationSumIn
2013-1-1,17.0,12.4,8.0,11.0,7.4,3.0,94,80,72,0.00,40.00,36,23,45,0.00
2013-1-2,17.0,12.5,8.0,11.0,7.3,2.0,90,79,67,0.00,40.00,25,20,34,0.00
2013-1-3,32.0,16.9,8.0,13.0,1.3,-4.0,70,50,33,0.00,40.00,23,11,29,0.00
2013-1-4,36.0,20.8,11.0,17.0,6.7,-2.0,68,54,40,0.00,40.00,11,5,17,0.00
2013-1-5,28.0,21.5,7.0,11.0,5.4,-3.0,66,49,37,0.00,40.00,37,15,50,0.00
2013-1-6,44.0,29.7,15.0,12.0,5.7,-2.0,49,36,26,0.00,40.00,25,8,35,0.00
2013-1-7,37.0,31.4,26.0,18.0,9.7,5.0,65,40,31,0.00,40.00,55,30,68,0.00
2013-1-8,29.0,26.6,23.0,24.0,22.8,19.0,99,85,68,0.00,40.00,49,37,62,0.04
2013-1-9,45.0,33.9,27.0,28.0,20.3,12.0,80,58,31,0.00,40.00,40,14,50,0.00
2013-1-10,47.0,37.3,29.0,20.0,14.4,11.0,59,39,25,0.00,40.00,37,12,54,0.00
2013-1-11,33.0,16.2,4.0,27.0,14.1,2.0,99,92,55,0.00,40.00,40,24,50,0.40
2013-1-12,10.0,1.7,-5.0,9.0,0.8,-6.0,99,95,91,0.00,40.00,28,12,36,0.00
2013-1-13,5.0,-2.2,-12.0,3.0,-4.0,-15.0,97,91,81,0.00,40.00,14,6,21,0.00
2013-1-14,7.0,-2.3,-12.0,1.0,-7.4,-15.0,89,78,66,0.00,40.00,40,20,51,0.00
2013-1-15,23.0,12.5,0.0,20.0,6.9,-9.0,89,77,67,0.00,40.00,40,32,54,0.00
2013-1-16,35.0,25.4,20.0,22.0,17.4,13.0,89,72,56,0.00,40.00,39,26,47,0.00
2013-1-17,42.0,27.9,15.0,21.0,13.6,10.0,82,56,36,0.00,40.00,33,12,44,0.00
2013-1-18,38.0,33.0,29.0,14.0,11.1,8.0,42,39,36,0.00,40.00,40,31,56,0.00
2013-1-19,40.0,33.0,27.0,12.0,9.8,8.0,45,37,30,0.00,40.00,40,31,57,0.00
2013-1-20,36.0,30.2,26.0,13.0,9.1,7.0,49,40,37,0.00,40.00,35,25,47,0.00
2013-1-21,36.0,31.4,26.0,17.0,13.3,11.0,53,46,36,0.00,40.00,47,34,59,0.00
2013-1-22,43.0,37.4,32.0,11.0,8.3,3.0,37,29,20,0.00,40.00,47,35,62,0.00
2013-1-23,50.0,42.3,36.0,17.0,8.4,1.0,34,24,18,0.00,40.00,37,23,49,0.00
2013-1-24,43.0,37.1,32.0,33.0,21.7,10.0,99,59,29,0.00,40.00,51,34,65,0.23
2013-1-25,40.0,35.5,33.0,33.0,31.1,29.0,92,84,70,0.00,40.00,44,28,54,0.00
2013-1-26,45.0,37.8,34.0,34.0,31.4,29.0,96,78,55,0.00,40.00,37,15,45,0.00
2013-1-27,43.0,35.6,31.0,35.0,29.3,23.0,99,79,49,0.00,40.00,33,15,45,0.04
2013-1-28,35.0,22.3,11.0,31.0,19.7,9.0,99,90,66,0.00,40.00,33,18,39,0.24
2013-1-29,18.0,11.5,7.0,12.0,7.9,4.0,99,85,69,0.00,40.00,31,18,40,0.03
2013-1-30,24.0,16.3,7.0,23.0,15.6,5.0,99,96,88,0.00,40.00,45,32,57,0.14
2013-1-31,26.0,24.2,20.0,25.0,23.1,20.0,99,95,88,0.00,40.00,40,32,50,0.07
2013-2-1,26.0,24.7,23.0,26.0,23.8,21.0,99,96,84,0.00,40.00,40,30,53,0.27
2013-2-2,34.0,28.5,21.0,22.0,17.2,14.0,97,64,45,0.00,40.00,42,32,56,0.05
2013-2-3,39.0,33.0,28.0,14.0,10.3,8.0,47,38,31,0.00,40.00,36,28,47,0.00
2013-2-4,33.0,29.6,26.0,21.0,15.4,10.0,70,55,46,0.00,40.00,55,41,68,0.00
2013-2-5,43.0,35.4,28.0,27.0,22.4,20.0,70,59,41,0.00,40.00,47,33,58,0.00
2013-2-6,38.0,32.8,24.0,31.0,22.5,17.0,87,66,52,0.00,40.00,35,26,47,0.01
2013-2-7,42.0,28.8,20.0,17.0,8.2,-6.0,79,46,21,0.00,40.00,24,11,30,0.00
2013-2-8,44.0,32.1,20.0,26.0,13.0,-6.0,91,45,25,0.00,40.00,12,5,18,0.01
2013-2-9,29.0,20.4,16.0,29.0,19.7,16.0,99,97,86,0.00,40.00,12,6,18,0.47
2013-2-10,22.0,14.0,3.0,20.0,13.2,-1.0,99,96,83,0.00,40.00,17,8,22,0.30
2013-2-11,31.0,8.8,-2.0,10.0,0.9,-7.0,87,71,37,0.00,40.00,34,14,43,0.00
2013-2-12,23.0,15.9,9.0,16.0,8.7,2.0,92,73,60,0.00,40.00,41,30,52,0.01
2013-2-13,25.0,21.6,17.0,24.0,20.6,16.0,99,95,89,0.00,40.00,51,37,65,0.10
2013-2-14,24.0,19.0,14.0,22.0,17.9,13.0,99,95,74,0.00,40.00,35,14,47,0.32
2013-2-15,25.0,19.8,15.0,21.0,17.3,14.0,99,90,82,0.00,40.00,41,26,54,0.06
2013-2-16,35.0,29.8,23.0,22.0,18.3,15.0,85,63,48,0.00,40.00,47,36,60,0.00
2013-2-17,37.0,28.7,17.0,25.0,16.1,8.0,99,62,36,0.00,40.00,35,25,45,0.46
2013-2-18,21.0,16.9,15.0,18.0,13.5,1.0,99,88,43,0.00,40.00,39,21,47,0.08
2013-2-19,37.0,23.1,11.0,17.0,6.6,-2.0,65,49,33,0.00,40.00,20,5,29,0.00
2013-2-20,38.0,25.5,18.0,25.0,16.4,9.0,99,70,45,0.00,40.00,17,8,22,0.00
2013-2-21,22.0,17.0,15.0,22.0,16.3,13.0,99,97,86,0.00,40.00,21,9,27,0.11
2013-2-22,21.0,16.7,13.0,17.0,13.0,10.0,93,84,70,0.00,40.00,49,27,63,0.00
2013-2-23,34.0,24.2,16.0,24.0,17.7,12.0,99,77,54,0.00,40.00,48,25,63,0.13
2013-2-24,20.0,15.4,6.0,20.0,14.7,4.0,99,97,83,0.00,40.00,18,6,23,0.49
2013-2-25,31.0,20.6,13.0,17.0,11.9,6.0,87,69,54,0.00,40.00,37,20,47,0.00
2013-2-26,21.0,17.4,13.0,19.0,15.8,13.0,99,93,75,0.00,40.00,38,14,47,0.18
2013-2-27,20.0,15.4,11.0,14.0,10.9,8.0,97,82,64,0.00,40.00,34,22,42,0.00
2013-2-28,25.0,20.0,15.0,20.0,14.2,9.0,93,78,68,0.00,40.00,39,31,50,0.00
2013-3-1,34.0,28.2,22.0,31.0,25.3,16.0,96,88,73,0.00,40.00,39,30,52,0.04
2013-3-2,43.0,37.7,30.0,30.0,26.7,22.0,94,66,47,0.00,40.00,39,28,50,0.00
2013-3-3,41.0,34.5,31.0,33.0,28.7,22.0,99,81,47,0.00,40.00,42,31,55,0.60
2013-3-4,31.0,19.8,12.0,27.0,16.8,8.0,99,88,76,0.00,40.00,34,18,44,0.29
2013-3-5,42.0,28.6,15.0,16.0,6.8,0.0,85,44,23,0.00,40.00,44,23,55,0.00
2013-3-6,50.0,40.8,33.0,22.0,15.7,1.0,42,35,24,0.00,40.00,31,17,40,0.00
2013-3-7,48.0,38.9,31.0,33.0,26.3,18.0,86,61,41,0.00,40.00,40,11,53,0.00
2013-3-8,50.0,37.3,27.0,32.0,24.1,18.0,97,61,31,0.00,40.00,16,6,20,0.01
2013-3-9,32.0,24.6,17.0,31.0,23.5,17.0,99,95,82,0.00,40.00,12,5,19,0.31
2013-3-10,35.0,26.0,17.0,24.0,18.5,11.0,99,74,44,0.00,40.00,37,19,52,0.02
2013-3-11,31.0,27.1,21.0,30.0,22.9,19.0,99,85,66,0.00,40.00,38,22,50,0.24
2013-3-12,36.0,28.1,17.0,31.0,25.6,17.0,99,90,77,0.00,40.00,35,21,46,0.04
2013-3-13,45.0,38.9,33.0,33.0,30.3,29.0,90,71,56,0.00,40.00,43,31,52,0.00
2013-3-14,51.0,45.1,39.0,30.0,26.7,23.0,63,49,40,0.00,40.00,33,26,44,0.00
2013-3-15,53.0,48.2,40.0,33.0,25.5,22.0,75,41,31,0.00,40.00,38,28,49,0.00
2013-3-16,47.0,40.0,29.0,31.0,22.4,12.0,92,51,29,0.00,40.00,33,18,43,0.00
2013-3-17,36.0,30.0,18.0,29.0,16.5,8.0,99,58,39,0.00,40.00,48,28,66,0.02
2013-3-18,33.0,22.8,15.0,18.0,11.6,8.0,76,62,42,0.00,40.00,39,28,57,0.00
2013-3-19,36.0,26.8,17.0,14.0,7.9,0.0,71,47,25,0.00,40.00,36,23,49,0.00
2013-3-20,46.0,33.7,26.0,33.0,15.7,1.0,99,53,27,0.00,40.00,43,26,55,0.20
2013-3-21,35.0,29.0,18.0,32.0,25.9,10.0,99,88,70,0.00,40.00,43,28,54,0.30
2013-3-22,26.0,18.4,15.0,17.0,11.4,6.0,96,74,44,0.00,40.00,30,18,37,0.01
2013-3-23,15.0,11.2,8.0,14.0,11.0,8.0,99,99,96,0.00,40.00,17,11,21,0.03
2013-3-25,29.0,19.8,8.0,15.0,8.6,3.0,86,62,45,0.00,40.00,18,11,23,0.00
2013-3-26,38.0,29.9,19.0,33.0,22.4,3.0,99,74,45,0.00,40.00,34,21,43,0.09
2013-3-27,46.0,36.5,26.0,33.0,29.1,25.0,96,75,51,0.00,40.00,23,11,30,0.01
2013-3-28,53.0,41.9,33.0,31.0,27.8,25.0,77,58,39,0.00,40.00,19,11,26,0.00
2013-3-29,51.0,41.9,34.0,42.0,32.1,29.0,96,69,49,0.00,40.00,26,15,39,0.03
2013-3-30,50.0,39.9,31.0,34.0,28.8,-99.9,82,67,42,0.00,40.00,32,15,41,0.00
2013-3-31,53.0,41.1,28.0,29.0,22.9,18.0,84,49,30,0.00,40.00,39,20,47,0.00
2013-4-1,50.0,36.3,22.0,35.0,28.9,22.0,99,77,45,0.00,40.00,17,7,22,0.00
2013-4-2,40.0,33.7,30.0,35.0,31.7,29.0,99,92,68,0.00,40.00,17,8,22,0.00
2013-4-3,55.0,39.1,26.0,37.0,25.5,17.0,99,65,28,0.00,40.00,23,11,32,0.06
2013-4-4,56.0,45.7,36.0,32.0,28.5,23.0,78,53,34,0.00,40.00,26,17,33,0.00
2013-4-5,54.0,45.2,36.0,42.0,29.5,22.0,99,57,35,0.00,40.00,42,24,58,0.01
2013-4-6,47.0,38.5,32.0,40.0,29.4,26.0,98,70,48,0.00,40.00,36,23,45,0.00
2013-4-7,46.0,38.0,34.0,37.0,31.6,25.0,98,78,45,0.00,40.00,37,24,50,0.22
2013-4-8,46.0,32.1,15.0,35.0,26.2,14.0,99,81,48,0.00,40.00,26,14,35,0.10
2013-4-9,14.0,5.7,0.0,14.0,5.3,0.0,99,98,91,0.00,40.00,15,10,24,0.04
2013-4-10,28.0,16.3,0.0,26.0,11.7,-1.0,99,82,60,0.00,40.00,41,20,50,0.01
2013-4-11,38.0,32.0,28.0,32.0,28.8,25.0,98,88,68,0.00,40.00,41,18,51,0.10
2013-4-12,43.0,32.8,28.0,36.0,28.4,16.0,99,85,47,0.00,40.00,26,11,35,0.10
2013-4-13,44.0,36.6,29.0,35.0,24.8,15.0,99,65,41,0.00,40.00,45,27,66,0.21
2013-4-14,29.0,23.5,16.0,27.0,14.0,8.0,99,68,46,0.00,40.00,38,24,48,0.00
2013-4-15,25.0,19.6,16.0,21.0,18.8,11.0,99,96,54,0.00,40.00,21,12,29,0.03
2013-4-16,26.0,19.6,14.0,25.0,19.4,14.0,99,98,90,0.00,40.00,22,14,32,0.33
2013-4-17,19.0,12.9,7.0,19.0,12.9,7.0,99,99,98,0.00,40.00,21,12,27,0.43
2013-4-18,24.0,15.8,5.0,18.0,11.0,5.0,99,82,55,0.00,40.00,31,20,40,0.02
2013-4-19,34.0,28.0,21.0,28.0,22.8,18.0,89,80,72,0.00,40.00,45,34,55,0.14
2013-4-20,43.0,34.9,31.0,36.0,32.0,28.0,99,89,68,0.00,40.00,30,22,39,0.20
2013-4-21,45.0,37.2,31.0,32.0,28.8,26.0,96,73,52,0.00,40.00,37,25,46,0.18
2013-4-22,38.0,23.2,12.0,32.0,21.9,12.0,99,95,62,0.00,40.00,26,14,32,0.43
2013-4-23,29.0,19.6,6.0,25.0,13.7,6.0,99,79,56,0.00,40.00,22,9,32,0.02
2013-4-24,40.0,30.3,16.0,23.0,15.3,9.0,74,54,36,0.00,40.00,25,15,34,0.00
2013-4-25,51.0,41.6,33.0,23.0,14.7,8.0,36,33,29,0.00,40.00,27,18,34,0.00
2013-4-26,58.0,43.0,28.0,27.0,18.5,11.0,50,38,25,0.00,40.00,15,7,21,0.00
2013-4-27,59.0,50.0,39.0,29.0,22.9,18.0,44,34,28,0.00,40.00,30,20,37,0.00
2013-4-28,64.0,52.4,45.0,34.0,28.8,22.0,60,40,31,0.00,40.00,34,22,49,0.00
2013-4-29,61.0,50.7,39.0,35.0,28.8,26.0,76,44,29,0.00,40.00,45,26,62,0.00
2013-4-30,51.0,39.1,26.0,39.0,33.5,26.0,99,82,40,0.00,40.00,35,17,45,0.37
2013-5-1,26.0,21.5,14.0,26.0,21.4,14.0,99,98,93,0.00,40.00,21,13,27,0.24
2013-5-2,41.0,27.5,10.0,23.0,14.2,6.0,99,61,33,0.00,40.00,21,9,28,0.00
2013-5-3,56.0,43.6,34.0,30.0,18.1,12.0,59,36,24,0.00,40.00,20,11,27,0.00
2013-5-4,50.0,42.3,36.0,31.0,28.4,26.0,76,58,45,0.00,40.00,22,12,35,0.00
2013-5-5,51.0,40.2,29.0,38.0,30.6,26.0,89,70,45,0.00,40.00,20,11,30,0.00
2013-5-6,58.0,46.5,35.0,38.0,33.9,30.0,87,63,39,0.00,40.00,16,6,27,0.00
2013-5-7,57.0,45.9,37.0,43.0,37.1,31.0,96,73,43,0.00,40.00,21,10,29,0.03
2013-5-8,53.0,43.4,37.0,44.0,38.7,35.0,99,84,51,0.00,40.00,24,9,34,0.09
2013-5-9,52.0,42.9,36.0,44.0,38.0,33.0,98,84,50,0.00,40.00,14,6,24,0.01
2013-5-10,57.0,45.6,34.0,41.0,31.4,-99.9,98,64,34,0.00,40.00,17,6,23,0.00
2013-5-11,65.0,49.6,37.0,41.0,31.7,-99.9,89,55,26,0.00,40.00,22,7,27,0.00
2013-5-12,71.0,57.0,41.0,39.0,34.1,28.0,69,43,28,0.00,40.00,17,9,27,0.00
2013-5-13,74.0,62.8,47.0,42.0,38.0,32.0,59,40,29,0.00,40.00,21,14,27,0.00
2013-5-14,74.0,64.7,53.0,41.0,36.5,33.0,45,35,27,0.00,40.00,21,13,29,0.00
2013-5-15,70.0,57.4,47.0,46.0,39.9,34.0,75,53,36,0.00,40.00,24,10,31,0.00
2013-5-16,69.0,54.0,47.0,48.0,23.6,-99.9,98,53,24,0.00,40.00,29,16,39,0.03
2013-5-17,70.0,58.1,47.0,40.0,28.7,-99.9,73,40,23,0.00,40.00,21,11,28,0.00
2013-5-18,60.0,48.5,41.0,42.0,36.5,32.0,94,64,38,0.00,40.00,35,15,43,0.00
2013-5-19,49.0,42.7,39.0,44.0,39.2,35.0,99,87,65,0.00,40.00,31,20,40,0.09
2013-5-20,46.0,39.5,35.0,42.0,36.7,29.0,99,90,67,0.00,40.00,19,12,28,0.24
2013-5-21,55.0,44.2,34.0,35.0,31.0,27.0,80,61,40,0.00,40.00,24,13,34,0.00
2013-5-22,65.0,52.0,39.0,44.0,37.3,33.0,88,59,34,0.00,40.00,26,11,39,0.00
2013-5-23,71.0,57.0,45.0,49.0,42.9,34.0,92,60,30,0.00,40.00,22,12,34,0.00
2013-5-24,69.0,56.6,45.0,39.0,31.4,27.0,60,40,23,0.00,40.00,26,13,39,0.00
2013-5-25,72.0,58.7,43.0,34.0,28.2,24.0,52,33,19,0.00,40.00,26,13,44,0.00
2013-5-26,74.0,60.2,43.0,36.0,29.6,25.0,48,32,21,0.00,40.00,20,12,30,0.00
2013-5-27,69.0,56.1,45.0,39.0,30.9,25.0,45,38,31,0.00,40.00,32,14,42,0.00
2013-5-28,65.0,52.0,40.0,44.0,33.2,24.0,93,49,36,0.00,40.00,26,10,40,0.00
2013-5-29,51.0,43.7,38.0,43.0,39.5,34.0,99,86,52,0.00,40.00,32,18,45,0.06
2013-5-30,54.0,44.9,38.0,37.0,29.6,22.0,94,59,31,0.00,40.00,51,34,63,0.00
2013-5-31,56.0,45.2,36.0,36.0,29.4,25.0,82,56,34,0.00,40.00,43,27,54,0.00
2013-6-1,60.0,47.1,37.0,40.0,36.7,33.0,99,71,40,0.00,40.00,18,9,27,0.00
2013-6-2,74.0,58.4,40.0,37.0,31.9,26.0,81,42,21,0.00,40.00,24,13,34,0.00
2013-6-3,70.0,61.9,48.0,35.0,26.3,18.0,39,26,18,0.00,40.00,38,21,49,0.00
2013-6-4,68.0,51.0,38.0,43.0,32.1,19.0,91,51,29,0.00,40.00,24,11,37,0.00
2013-6-5,66.0,50.1,37.0,42.0,34.8,23.0,99,63,26,0.00,40.00,16,6,21,0.00
2013-6-6,73.0,56.6,41.0,39.0,33.7,28.0,61,43,28,0.00,40.00,12,6,20,0.00
2013-6-7,74.0,61.6,47.0,46.0,40.6,37.0,81,49,29,0.00,40.00,22,9,45,0.00
2013-6-8,71.0,59.6,48.0,48.0,37.9,30.0,95,47,26,0.00,40.00,24,10,32,0.00
2013-6-9,81.0,66.4,47.0,43.0,37.9,33.0,60,37,23,0.00,40.00,25,16,35,0.00
2013-6-10,86.0,73.0,63.0,45.0,38.7,33.0,34,29,23,0.00,40.00,34,15,42,0.00
2013-6-11,78.0,69.5,60.0,37.0,33.4,27.0,34,26,22,0.00,40.00,29,19,44,0.00
2013-6-12,82.0,65.3,54.0,44.0,36.1,28.0,47,34,24,0.00,40.00,22,10,30,0.00
2013-6-13,81.0,69.9,60.0,46.0,39.0,33.0,40,32,26,0.00,40.00,29,12,45,0.00
2013-6-14,74.0,62.8,53.0,39.0,34.1,24.0,48,34,24,0.00,40.00,30,16,43,0.00
2013-6-15,77.0,57.9,43.0,44.0,31.9,22.0,64,38,23,0.00,40.00,18,7,30,0.00
2013-6-16,79.0,59.7,48.0,40.0,35.4,30.0,51,41,24,0.00,40.00,22,12,29,0.00
2013-6-17,79.0,59.1,48.0,52.0,41.9,34.0,66,54,25,0.00,40.00,15,8,23,0.00
2013-7-31,76.0,67.4,62.0,53.0,50.5,47.0,72,56,34,0.00,40.00,12,8,22,0.00